Volver al catálogo

STARLINK-35927

ActivoComunicacionesVLEO
NORAD 66624·PAYLOAD·🇺🇸 United States

Lanzado Nov 23, 2025 desde Vandenberg Space Force Base

Loading…

Próximos Pases (próximas 24 horas)

TLE

ActualizadoSource: CelesTrak SupGP

Época: Sep 14, 2026, 14:18 UTC

1 66624C 25271H   26257.59631944 -.00021005  00000+0 -62079-3 0  2577
2 66624  53.1595 341.0218 0001385  71.2550 149.9319 15.34391610    10

Sigue STARLINK-35927 en tiempo real con AllMySat

Download on the App Store